Flag for South Africa Weather past 2 weeks in Cape Town, South Africa

Now
61 °F

Partly sunny.


Feels Like: 61 °F
Forecast: 55 / 60 °F
Wind: 13 mph from North

Location: Cape Town International Airport

Current Time: Sep 17, 2014 at 8:30:37 AM

Latest Report: Sep 17, 2014 at 7:00 AM


Visibility: N/A

Pressure: 29.83 "Hg

Humidity: 83%

Dew point: 55 °F

Location of Cape TownLocation

Historic Weather in Cape Town — Graph

°F

Cape Town temperature yesterday

Maximum temperature yesterday: 73 °F (at 2:00 PM)
Minimum temperature yesterday: 55 °F (at 12:00 AM)
Average temperature yesterday: 63 °F

Past Weeks' High & Low Weather Summary

 TemperatureHumidityPressure
High84 °F (Sep 2, 12:00 PM)100% (Sep 7, 8:00 AM)30.27 "Hg (Sep 7, 8:00 AM)
Low45 °F (Sep 13, 7:00 AM)23% (Sep 2, 12:00 PM)29.77 "Hg (Sep 17, 12:00 AM)
Average60 °F72%30.07 "Hg
* Reported Sep 2 7:00 AM — Sep 17 7:00 AM, Cape Town, Weather by CustomWeather, © 2014

Note: Actual official high and low records may vary slightly from our data, if they occured in-between our weather recording intervals... More about our weather records

Advertising

Cape Town weather history for previous 24 hours

 ConditionsComfort  
Time TempWeatherWind HumidityBarometerVisibility
7:00 AM
Sep 17
61 °FPartly sunny.13 mph83%29.83 "HgN/A
6:00 AM61 °FBroken clouds.15 mph83%29.80 "HgN/A
5:00 AM61 °FPartly cloudy.13 mph83%29.80 "HgN/A
4:00 AM61 °FClear.8 mph77%29.77 "Hg10 mi
3:00 AM61 °FClear.9 mph72%29.77 "Hg10 mi
2:00 AM59 °FPassing clouds.5 mph77%29.77 "HgN/A
1:00 AM59 °FClear.7 mph82%29.77 "Hg10 mi
12:00 AM61 °FClear.6 mph77%29.77 "Hg10 mi
11:00 PM
Sep 16
59 °FClear.3 mph82%29.80 "Hg10 mi
10:00 PM63 °FClear.6 mph73%29.83 "Hg10 mi
9:00 PM63 °FClear.8 mph73%29.83 "Hg10 mi
8:00 PM64 °FClear.10 mph68%29.86 "Hg10 mi
7:00 PM66 °FClear.16 mph68%29.86 "Hg10 mi
6:00 PM68 °FClear.17 mph60%29.86 "Hg10 mi
5:00 PM68 °FSunny.10 mph64%29.86 "Hg10 mi
4:00 PM72 °FSunny.10 mph53%29.89 "Hg10 mi
3:00 PM73 °FPassing clouds.9 mph50%29.89 "HgN/A
2:00 PM73 °FPassing clouds.8 mph50%29.92 "HgN/A
1:00 PM70 °FPassing clouds.9 mph57%29.95 "HgN/A
12:00 PM68 °FSunny.13 mph60%29.98 "Hg10 mi
11:00 AM68 °FPassing clouds.7 mph60%29.98 "HgN/A
10:00 AM63 °FSunny.13 mph73%30.01 "Hg10 mi
9:00 AM61 °FSunny.7 mph77%30.01 "Hg10 mi
Weather by CustomWeather, © 2014

See weather overviewHow to use our weather pages